Weather Roundup
Issued by NWS Springfield, MO

Home | Current Version | Previous Version | Text Only | Print | Product List | Glossary On
Versions: 1 2 3 4 5 6 7 8 9 10 11 12 13 14 15 16 17 18 19 20 21 22 23 24 25 26 27 28 29 30 31 32 33 34 35 36 37 38 39 40 41 42 43 44 45 46 47 48 49 50
000
NZUS99 KSGF 211759
HRRSGF

HOURLY WEATHER
NATIONAL WEATHER SERVICE SPRINGFIELD MO
1200 PM CST SUN DEC 21 2014

......SGF CWA......

CITY           SKY/WX    TMP DP  RH WIND       PRES   REMARKS
SPRINGFIELD    CLOUDY    41  38  89 SE16      30.01F FOG
6HR MIN TEMP:  40; 6HR MAX TEMP:  41;

JOPLIN         CLOUDY    46  41  82 S17       30.00
6HR MIN TEMP:  42; 6HR MAX TEMP:  46; 6HR PCP: TRACE;

WEST PLAINS    CLOUDY    39  34  82 SE8       30.10F WCI  33
6HR MIN TEMP:  37; 6HR MAX TEMP:  39;

ROLLA          CLOUDY    40  35  83 S13       30.06F WCI  32
6HR MIN TEMP:  38; 6HR MAX TEMP:  41;

OSAGE BEACH    CLOUDY    43  36  75 S8        30.05F
BRANSON        CLOUDY    41  36  81 SE6       30.07F

......SURROUNDING SGF CWA......

CITY           SKY/WX    TMP DP  RH WIND       PRES   REMARKS
CHANUTE        CLOUDY    45  42  89 S16       29.96F
PARSONS        CLOUDY    46  42  86 S9G20     29.97F
COFFEYVILLE    CLOUDY    46  42  86 S14G23    29.97F
EMPORIA        CLOUDY    41  39  93 S16       29.90F
SILOAM SPRINGS CLOUDY    45  36  70 S13       30.03F
HARRISON AR    CLOUDY    41  36  82 S12       30.06F
NEAR YELLVILLE CLOUDY    43  34  70 E5        30.09F

......KANSAS AND MISSOURI......

CITY           SKY/WX    TMP DP  RH WIND       PRES   REMARKS
KANSAS CTY INT CLOUDY    42  38  85 S15       29.93F
DOWNTOWN KC    CLOUDY    44  38  79 S13       29.96F
COLUMBIA       CLOUDY    43  37  79 S16       30.04F
SEDALIA        CLOUDY    45  40  82 S15       30.01F
ST JOSEPH      CLOUDY    42  38  85 S16G23    29.92F
ST LOUIS       CLOUDY    43  32  65 SE15      30.14F
SPIRIT OF STL  CLOUDY    43  34  70 SE9       30.11F
KIRKSVILLE     CLOUDY    43  38  82 S14       29.99F
WICHITA        DRIZZLE   43  40  89 S15       29.87F FOG
TOPEKA         CLOUDY   N/A N/A N/A S12       29.91F
OLATHE         CLOUDY    42  39  89 S13       29.95F

......TENNESSEE......

CITY           SKY/WX    TMP DP  RH WIND       PRES   REMARKS
MEMPHIS        MOSUNNY   53  30  41 SE5       30.13F
NASHVILLE      MOSUNNY   50  29  44 NE7       30.17F

......ARKANSAS.......

CITY           SKY/WX    TMP DP  RH WIND       PRES   REMARKS
FAYETTEVILLE   CLOUDY    43  38  82 S13       30.04F
FT SMITH       CLOUDY    46  37  71 SE9       30.06F
LITTLE ROCK    MOSUNNY   51  35  54 SE10      30.11F

......OKLAHOMA.......

CITY           SKY/WX    TMP DP  RH WIND       PRES   REMARKS
TULSA          CLOUDY    48  43  82 S17       29.98F
PONCA CITY     CLOUDY    47  42  83 S13G23    29.91F
MCALESTER      CLOUDY    49  41  74 S12       30.01F
OKLAHOMA CITY  CLOUDY    47  42  83 S20G25    29.90F

......IOWA............

CITY           SKY/WX    TMP DP  RH WIND       PRES   REMARKS
DES MOINES     CLOUDY    42  35  76 S16G25    29.91F
QUAD CITIES    CLOUDY    39  34  82 SE12      30.04F WCI  32

......ILLINOIS........

CITY           SKY/WX    TMP DP  RH WIND       PRES   REMARKS
QUINCY         CLOUDY    42  34  73 S15G21    30.05F
CHICAGO        CLOUDY    35  28  75 S13       30.14F WCI  26



USA.gov is the U.S. government's official web portal to all federal, state and local government web resources and services.